Location: Arroyo de Solosalbos
(41.0405°N, 3.9809°W)
Time: 01:31:51
(UTC+00:00)

Daily predictions for brighter satellites

Satellite Brightness Start Highest point End
(mag) Time Altitude Azimuth Time Altitude Azimuth Time Altitude Azimuth
Cosmos 2082 Rocket 4.2 03:49:32 23° E 03:49:32 23° E 03:52:59 10° NE
Cosmos 1980 Rocket 3.4 04:14:14 37° E 04:14:14 37° E 04:18:15 10° SE
CZ-3 Stage 3 4.4 04:47:16 37° SW 04:52:03 55° S 05:27:59 10° ESE
Nadezhda 4 Rocket 4.0 05:07:13 10° S 05:13:32 82° E 05:19:50 10° N
CZ-4 R/B 4.1 05:13:06 10° NNE 05:17:43 64° ESE 05:22:17 10° S
NOSS 2-1 (D) 4.0 05:17:47 44° NNE 05:18:27 49° NE 05:23:09 10° SE
SL-24 R/B - RUBIN 2 3.8 05:19:22 52° SSW 05:19:22 52° SSW 05:22:59 10° SSE
Cosmos 841 Rocket 3.4 05:15:12 10° SSW 05:20:25 89° ESE 05:25:42 10° NNE
COSMOS 2406 3.3 05:15:15 10° SSW 05:20:53 76° ESE 05:26:34 10° NNE
USA 59 Rocket 0.3 05:20:26 50° NNE 05:21:07 58° NE 05:26:03 10° SE
CZ-3 R/B 4.0 05:14:25 25° WSW 05:22:01 32° SW 05:29:44 10° SSE
NOSS 2-1 (E) 4.2 05:25:12 35° N 05:26:18 46° NE 05:30:56 10° SE
NOSS 3-1 (C) 4.4 05:21:26 21° NNW 05:26:41 65° NE 05:35:37 10° SE
Cosmos 1933 3.0 05:27:10 86° SSW 05:27:10 86° SSW 05:30:53 10° S
Cosmos 1892 Rocket 4.2 05:23:26 10° S 05:27:41 55° E 05:31:59 10° NNE
ATLAS CENTAUR Rocket 4.2 05:27:04 11° SSW 05:30:53 27° SSE 05:40:45 10° E
Cosmos 2082 Rocket 2.3 05:31:29 44° W 05:32:17 47° WNW 05:37:43 10° NNE
SL-16 R/B 3.3 05:28:40 11° N 05:33:55 42° ENE 05:39:15 10° SE
COSMOS 2455 2.8 05:41:19 26° NW 05:44:53 72° WSW 05:50:51 10° SSE
IRS-1D 3.4 05:39:58 10° N 05:44:54 60° WNW 05:49:54 10° SSW
Cosmos 1898 Rocket 3.4 05:42:42 25° NNW 05:45:46 68° WSW 05:50:59 10° S
NOSS 2-1 (C) 3.4 05:44:49 37° NNW 05:46:18 85° ENE 05:51:20 10° SE
SWAS 4.2 05:51:06 28° NNW 05:53:09 84° WSW 05:57:10 10° SSE
Delta 2 Rocket 4.3 05:54:41 19° SSW 05:55:16 20° SSW 05:57:36 10° SE
COSMO-SKYMED 1 2.3 05:51:13 10° S 05:55:19 78° WSW 05:59:10 12° NNW
Cosmos-2242 3.8 05:51:47 10° N 05:55:55 50° E 06:00:00 10° SSE
Cosmos 1980 Rocket 3.1 05:56:02 26° W 05:56:40 26° WSW 06:01:12 10° SSW
Cosmos 2278 4.3 05:51:32 10° NNW 05:57:07 56° ENE 06:02:38 10° SE
SKYMED 2 3.8 05:54:16 10° S 05:58:27 47° W 06:01:14 20° NNW
Cosmos 1627 Rocket 4.4 05:54:23 10° S 06:00:30 82° W 06:06:39 10° N
Tiangong -1.5 05:59:42 35° WSW 06:00:33 46° SSW 06:03:40 10° SE
Cosmos 2369 4.0 05:58:13 22° NW 06:01:32 45° WSW 06:06:51 10° S
Cosmos 2058 Rocket 3.4 05:58:41 10° N 06:03:08 69° E 06:07:29 10° SSE
Cosmos 1484 Rocket 2.5 06:00:00 10° NNE 06:03:24 78° ESE 06:06:46 10° S
Meteor 2-2 Rocket 4.5 06:00:44 10° N 06:06:27 74° E 06:12:14 10° SSE
Okean 1 3.7 06:05:18 10° N 06:08:48 55° E 06:12:17 10° SSE
Meteor 2-20 Rocket 4.5 06:03:55 10° N 06:09:42 76° E 06:15:23 10° SSE
Cosmos 1937 Rocket 3.5 06:06:02 14° NNW 06:10:20 55° WSW 06:15:18 10° S
Cosmos 858 Rocket 4.4 06:05:15 10° NNW 06:10:26 79° WSW 06:15:36 10° SSE
NOAA 12 4.5 06:06:46 10° N 06:11:40 40° WNW 06:16:31 10° SW
ATLAS 2AS CENTAUR R/B 4.5 06:05:55 10° S 06:12:15 36° ESE 06:18:26 10° NE
ARIANE 5 R/B 4.4 06:10:55 10° NNE 06:15:39 34° E 06:20:21 10° SSE
Cosmos 2333 Rocket 2.4 06:17:12 10° NNW 06:23:00 78° ENE 06:28:44 10° SSE
SMAP 3.7 06:22:16 10° NNE 06:26:53 61° E 06:31:29 10° S
Helios 1A Rocket 3.3 06:24:03 10° SSW 06:26:59 28° W 06:29:20 14° NW
Cosmos 2360 Rocket 2.7 06:23:55 10° NNW 06:29:29 59° ENE 06:35:00 10° SE
Cosmos 2026 Rocket 4.2 06:24:18 10° SSW 06:30:02 45° WNW 06:35:51 10° N
DMSP B5D1-3 4.5 06:26:14 10° S 06:31:18 68° WSW 06:36:25 10° NNW
Cosmos 1814 Rocket 4.0 06:26:24 10° SSW 06:31:36 88° WNW 06:36:55 10° NNE
NOSS 3-1 (A) 4.3 06:25:54 10° NNW 06:33:20 78° NE 06:42:27 10° SE
IRIDIUM 103 4.3 06:29:06 10° S 06:34:19 86° W 06:39:34 10° N
CBERS-1 3.9 06:30:32 10° N 06:35:37 70° WNW 06:40:40 10° SSW
BREEZE-M DEB (TANK) 3.5 06:34:37 12° NNW 06:35:52 21° NNE 06:37:49 10° E
IGS 5A 3.5 06:32:27 10° N 06:36:21 51° WNW 06:40:13 10° SSW
Cosmos 1758 Rocket 3.6 06:33:46 10° S 06:38:11 88° E 06:42:37 10° N
Cosmos 1733 1.1 06:37:24 10° SSW 06:39:13 67° W 06:41:03 10° N
Cosmos 1743 2.8 06:36:12 10° S 06:39:23 61° E 06:42:36 10° NNE
SL-4 R/B 3.4 06:37:09 10° NNW 06:39:29 18° NNE 06:41:46 10° ENE
BREEZE-M DEB (TANK) 4.1 06:42:40 12° WNW 06:44:57 28° N 06:50:11 10° ENE
Meteor 2-6 Rocket 4.4 06:40:46 10° N 06:46:47 89° E 06:52:43 10° S
Thor Agena Rocket 3.4 06:43:03 10° NNE 06:48:07 79° WNW 06:53:07 10° SSW
Cosmos 2219 Rocket 3.1 06:42:48 10° NNW 06:48:19 50° ENE 06:53:45 10° SE
Cosmos 2322 Rocket 2.2 06:45:47 10° NNW 06:51:30 82° WSW 06:57:09 10° SSE
IRIDIUM 106 4.4 06:47:31 10° SSW 06:52:39 58° W 06:57:49 10° N
Cosmos 1553 Rocket 4.1 06:49:00 10° NNW 06:55:20 66° W 07:01:39 10° S
SJ-12 3.7 06:56:20 10° N 07:00:09 81° WNW 07:03:57 10° SSW
